Regional Weather Roundup
Issued by NWS Midland/Odessa, TX

Skip options and go directly to product.
Home | Oldest Version | Previous Version | Current Version | All | Text Only | Save Text | Print | Product List | Glossary Off

Skip product version selection by date and time.   

899
ASUS44 KMAF 202010
RWRMAF
MIDLAND AREA WEATHER ROUNDUP
NATIONAL WEATHER SERVICE MIDLAND TX
200 PM CST SAT DEC 20 2014

...IN SOUTHWEST TEXAS AND SOUTHEAST NEW MEXICO...

CITY           SKY/WX    TMP DP  RH WIND       PRES   REMARKS
ALPINE         SUNNY     61  30  31 SW13G20   30.13F
ANDREWS        FAIR      52  37  56 SW9       30.07F
ARTESIA        MOSUNNY   54  28  37 S8G14     30.04F
BIG SPRING     CLOUDY    51  46  82 S10       30.12F
CARLSBAD       SUNNY     52  32  46 S12       30.04F
DRYDEN           N/A     55  46  71 E7        30.08F
FORT STOCKTON  SUNNY     60  32  34 VRB5      30.07F
GUAD PASS      NOT AVBL
HOBBS          SUNNY     48  37  66 S3        30.06F
MARFA          SUNNY     57  30  35 S13       30.10F
MIDLAND AIRPK  PTSUNNY   54  43  67 S5        30.08F
MIDLAND INTL   MOSUNNY   55  39  54 S3        30.07F
ODESSA         SUNNY     57  36  45 S10       30.08F
PECOS          SUNNY     56  32  40 CALM      30.07F
PRESIDIO       FAIR      61  33  35 SW3       30.07F
SEMINOLE       SUNNY     49  37  61 S8        30.07F
SNYDER         CLOUDY    47  41  81 S10       30.11F
WINK           SUNNY     54  30  40 W6        30.06F
$$
...OTHER STATIONS IN TEXAS...

CITY           SKY/WX    TMP DP  RH WIND       PRES   REMARKS
ABILENE        CLOUDY    50  40  68 S7        30.14F
AMARILLO       SUNNY     50  30  46 S14       30.03F
AUSTIN         CLOUDY    54  46  74 N9        30.17F
BROWNSVILLE    CLOUDY    59  54  83 N14G20    30.12F
CORPUS CHRISTI CLOUDY    57  50  77 NE6       30.15F
DALLAS FTW     CLOUDY    46  43  89 NE3       30.19F
DEL RIO        CLOUDY    56  47  71 E9        30.11F
EL PASO        MOSUNNY   55  28  35 SW10      30.09F
HOUSTON INT    CLOUDY    53  49  86 NE9       30.17F
LUBBOCK        CLOUDY    45  37  73 S13       30.07F WCI  39
SAN ANGELO     CLOUDY    52  44  74 SE7       30.12F
SAN ANTONIO    MOSUNNY   57  44  62 NE7       30.16F
WACO           CLOUDY    50  44  80 N6        30.20F
WICHITA FALLS  NOT AVBL
$$
...OTHER LOCATIONS IN NEW MEXICO...

CITY           SKY/WX    TMP DP  RH WIND       PRES   REMARKS
ALAMAGORDO     MOSUNNY   50  25  37 NW8       30.11F
ALBUQUERQUE    MOSUNNY   40  25  55 CALM      30.12F
CANNON AFB     SUNNY     50  20  30 W12       30.01F
CLOVIS         SUNNY     52  23  32 SW14G21   30.01F
HOLLOMAN AFB   MOSUNNY   50  27  40 NW7       30.09F
ROSWELL        MOSUNNY   53  26  35 SE7       30.03F
RUIDOSO        MOSUNNY   45  18  33 NW9G16    30.08F WCI  40
SANTA FE       MOSUNNY   39  18  42 N9        30.07F WCI  33
TRUTH OR CONSE SUNNY     48  22  35 CALM      30.10F
TUCUMCARI      SUNNY     49  26  41 NW6       29.99F
$$

USA.gov is the U.S. government's official web portal to all federal, state and local government web resources and services.